Voltar ao catálogo

SL-12 R/B(2)

AtivoGEO
NORAD 28466·ROCKET BODY·🇷🇺 Russia

Lançado Oct 29, 2004 de Baikonur Cosmodrome

Loading…

TLE

AtualizadoSource: Space-Track

Época: Sep 14, 2026, 08:59 UTC

1 28466U 04043D   26257.37447847 -.00000005  00000-0  00000-0 0  9999
2 28466  13.2999  15.7908 0008000 170.3553   8.6990  1.00105676 80009

Acompanhe SL-12 R/B(2) em tempo real com AllMySat

Download on the App Store